Buckhannon, WV

9:19 AM EDT on August 23, 2017 (GMT -0400)
Buckhannon

Weather History for KW22 - August, 2013

Change the Weather History Date:

Wednesday, August 7, 2013

  Actual Average (KCKB) Record (KCKB)
Temperature  
Mean Temperature 74 °F -  
Max Temperature 84 °F 82 °F 97 °F (1931)
Min Temperature 64 °F 60 °F 47 °F (1957)
Cooling Degree Days 9    
Growing Degree Days 24 (Base 50)    
Moisture  
Dew Point 68 °F    
Average Humidity 90    
Maximum Humidity 100    
Minimum Humidity 62    
Precipitation  
Precipitation 1.68 in - - ()
Sea Level Pressure  
Sea Level Pressure 30.04 in    
Wind  
Wind Speed 2 mph (SSW)    
Max Wind Speed 38 mph    
Max Gust Speed 44 mph    
Visibility 9 miles    
Events Rain    
Averages and records for this station are not official NWS values.
T = Trace of Precipitation, MM = Missing Value Source: NWS Daily Summary

Daily Weather History Graph

Daily Weather History Graph

Search for Another Location

Airport or City:

Trip Planner

Search our weather history database for the weather conditions in past years. The results will help you decide how hot, cold, wet, or windy it might be!

Date:

Astronomy

Aug. 07, 2013 Rise Set
Actual Time 6:27 AM EDT 8:25 PM EDT
Civil Twilight 5:58 AM EDT 8:54 PM EDT
Nautical Twilight 5:22 AM EDT 9:30 PM EDT
Astronomical Twilight 4:44 AM EDT 10:08 PM EDT
Moon 7:13 AM EDT (8/7) 8:33 PM EDT (8/7)
Length of Visible Light 14h 56m
Length of Day
13h 58m
New Moon, 1% of the Moon is Illuminated
Aug 7
New Moon
Aug 14
First Quarter
Aug 20
Full
Aug 28
Last Quarter
Sep 5
New

Hourly Weather History & Observations

Time (EDT) Temp. Heat Index Dew Point Humidity Pressure Visibility Wind Dir Wind Speed Gust Speed Precip Events Conditions
12:15 AM 64.4 °F - 64.4 °F 100% 30.04 in 10.0 mi Calm Calm - N/A   Partly Cloudy
12:35 AM 64.4 °F - 64.4 °F 100% 30.04 in 10.0 mi Calm Calm - N/A   Clear
12:55 AM 64.4 °F - 64.4 °F 100% 30.04 in 10.0 mi Calm Calm - N/A   Clear
1:15 AM 64.4 °F - 64.4 °F 100% 30.03 in 10.0 mi Calm Calm - N/A   Scattered Clouds
1:35 AM 64.4 °F - 64.4 °F 100% 30.03 in 10.0 mi Calm Calm - N/A   Scattered Clouds
1:55 AM 64.4 °F - 64.4 °F 100% 30.04 in 10.0 mi Calm Calm - N/A   Scattered Clouds
2:15 AM 64.4 °F - 64.4 °F 100% 30.04 in 10.0 mi Calm Calm - N/A   Scattered Clouds
2:35 AM 64.4 °F - 64.4 °F 100% 30.04 in 10.0 mi Calm Calm - N/A   Mostly Cloudy
2:55 AM 64.4 °F - 64.4 °F 100% 30.04 in 10.0 mi Calm Calm - N/A   Partly Cloudy
3:15 AM 64.4 °F - 64.4 °F 100% 30.04 in 10.0 mi Calm Calm - N/A   Partly Cloudy
3:35 AM 64.4 °F - 64.4 °F 100% 30.04 in 10.0 mi Calm Calm - N/A   Scattered Clouds
3:55 AM 64.4 °F - 64.4 °F 100% 30.04 in 10.0 mi Calm Calm - N/A   Scattered Clouds
4:15 AM 64.4 °F - 64.4 °F 100% 30.05 in 9.0 mi Calm Calm - N/A   Mostly Cloudy
4:35 AM 64.4 °F - 64.4 °F 100% 30.05 in 10.0 mi Calm Calm - N/A   Mostly Cloudy
4:55 AM 66.2 °F - 64.4 °F 94% 30.04 in 10.0 mi Calm Calm - N/A   Mostly Cloudy
5:15 AM 64.4 °F - 64.4 °F 100% 30.04 in 10.0 mi Calm Calm - N/A   Partly Cloudy
5:35 AM 64.4 °F - 64.4 °F 100% 30.04 in 10.0 mi Calm Calm - N/A   Clear
5:55 AM 64.4 °F - 64.4 °F 100% 30.04 in 9.0 mi Calm Calm - N/A   Clear
6:15 AM 64.4 °F - 64.4 °F 100% 30.04 in 10.0 mi Calm Calm - N/A   Partly Cloudy
6:35 AM 64.4 °F - 64.4 °F 100% 30.04 in 10.0 mi Calm Calm - N/A   Scattered Clouds
6:55 AM 64.4 °F - 64.4 °F 100% 30.04 in 9.0 mi Calm Calm - N/A   Partly Cloudy
7:15 AM 64.4 °F - 64.4 °F 100% 30.04 in 7.0 mi Calm Calm - N/A   Partly Cloudy
7:35 AM 66.2 °F - 66.2 °F 100% 30.05 in 10.0 mi Calm Calm - N/A   Mostly Cloudy
7:55 AM 66.2 °F - 66.2 °F 100% 30.06 in 10.0 mi Calm Calm - N/A   Overcast
8:15 AM 68.0 °F - 66.2 °F 94% 30.05 in 10.0 mi Calm Calm - N/A   Mostly Cloudy
8:35 AM 69.8 °F - 66.2 °F 88% 30.04 in 10.0 mi Calm Calm - N/A   Clear
8:55 AM 73.4 °F - 66.2 °F 78% 30.06 in 10.0 mi Calm Calm - N/A   Clear
9:15 AM 73.4 °F - 66.2 °F 78% 30.05 in 10.0 mi Calm Calm - N/A   Clear
9:35 AM 75.2 °F - 68.0 °F 78% 30.05 in 10.0 mi South 3.5 mph - N/A   Clear
9:55 AM 77.0 °F - 68.0 °F 74% 30.05 in 10.0 mi South 3.5 mph - N/A   Clear
10:15 AM 78.8 °F - 68.0 °F 69% 30.05 in 10.0 mi SW 5.8 mph - N/A   Clear
10:35 AM 78.8 °F - 68.0 °F 69% 30.05 in 10.0 mi SSW 5.8 mph - N/A   Partly Cloudy
10:55 AM 78.8 °F - 69.8 °F 74% 30.05 in 10.0 mi SW 8.1 mph - N/A   Partly Cloudy
11:15 AM 80.6 °F 83.9 °F 69.8 °F 70% 30.06 in 10.0 mi WSW 5.8 mph - N/A   Scattered Clouds
11:35 AM 80.6 °F 83.9 °F 69.8 °F 70% 30.06 in 10.0 mi SW 5.8 mph - N/A   Mostly Cloudy
11:55 AM 80.6 °F 83.9 °F 69.8 °F 70% 30.06 in 10.0 mi SSW 6.9 mph - N/A   Mostly Cloudy
12:15 PM 80.6 °F 83.9 °F 69.8 °F 70% 30.05 in 10.0 mi SSW 6.9 mph - N/A   Partly Cloudy
12:35 PM 82.4 °F 86.3 °F 69.8 °F 66% 30.05 in 10.0 mi WSW 5.8 mph - N/A   Clear
12:55 PM 82.4 °F 86.3 °F 69.8 °F 66% 30.05 in 10.0 mi SW 8.1 mph - N/A   Partly Cloudy
1:15 PM 82.4 °F 86.3 °F 69.8 °F 66% 30.04 in 10.0 mi SSW 6.9 mph - N/A   Partly Cloudy
1:35 PM 82.4 °F 86.3 °F 69.8 °F 66% 30.03 in 10.0 mi SW 3.5 mph - N/A   Scattered Clouds
1:55 PM 84.2 °F 88.4 °F 69.8 °F 62% 30.03 in 10.0 mi South 4.6 mph - N/A   Clear
2:15 PM 84.2 °F 88.4 °F 69.8 °F 62% 30.03 in 10.0 mi SW 5.8 mph - N/A   Clear
2:35 PM 82.4 °F 86.3 °F 69.8 °F 66% 30.03 in 10.0 mi West 5.8 mph - N/A   Partly Cloudy
2:55 PM 84.2 °F 88.4 °F 69.8 °F 62% 30.01 in 10.0 mi SSW 4.6 mph - N/A   Partly Cloudy
3:15 PM 82.4 °F 85.4 °F 68.0 °F 62% 30.01 in 10.0 mi South 11.5 mph 19.6 mph N/A   Scattered Clouds
3:35 PM 77.0 °F - 66.2 °F 69% 30.02 in 8.0 mi South 9.2 mph - N/A Rain Rain
3:55 PM 73.4 °F - 71.6 °F 94% 30.01 in 10.0 mi East 3.5 mph - 0.03 in   Mostly Cloudy
4:15 PM 68.0 °F - 64.4 °F 88% 29.98 in 0.2 mi South 38.0 mph 43.7 mph 0.75 in Rain Heavy Rain
4:35 PM 69.8 °F - 64.4 °F 83% 30.01 in 2.0 mi ENE 8.1 mph - 1.55 in   Overcast
4:55 PM 71.6 °F - 68.0 °F 88% 30.02 in 10.0 mi Calm Calm - 1.55 in   Partly Cloudy
5:15 PM 69.8 °F - 69.8 °F 100% 30.02 in 10.0 mi ESE 5.8 mph - N/A   Partly Cloudy
5:35 PM 71.6 °F - 69.8 °F 94% 30.01 in 10.0 mi South 3.5 mph - N/A   Partly Cloudy
5:55 PM 71.6 °F - 69.8 °F 94% 30.04 in 1.0 mi SSW 13.8 mph 32.2 mph 0.05 in   Overcast
6:15 PM 69.8 °F - 69.8 °F 100% 30.03 in 5.0 mi SW 11.5 mph - 0.05 in   Light Drizzle
6:35 PM 69.8 °F - 69.8 °F 100% 30.03 in 8.0 mi Calm Calm - 0.05 in   Mostly Cloudy
6:55 PM 69.8 °F - 69.8 °F 100% 30.03 in 10.0 mi SSW 3.5 mph - 0.05 in   Partly Cloudy
7:15 PM 69.8 °F - 69.8 °F 100% 30.03 in 10.0 mi SE 5.8 mph - N/A   Clear
7:35 PM 69.8 °F - 69.8 °F 100% 30.03 in 10.0 mi East 3.5 mph - N/A   Clear
7:55 PM 69.8 °F - 69.8 °F 100% 30.03 in 7.0 mi Calm Calm - N/A   Clear
8:15 PM 69.8 °F - 69.8 °F 100% 30.03 in 9.0 mi Calm Calm - N/A   Clear
8:35 PM 69.8 °F - 69.8 °F 100% 30.03 in 10.0 mi Calm Calm - N/A   Clear
8:55 PM 69.8 °F - 69.8 °F 100% 30.04 in 8.0 mi Calm Calm - N/A   Clear
9:15 PM 69.8 °F - 69.8 °F 100% 30.04 in 5.0 mi Calm Calm - N/A   Clear
9:35 PM 69.8 °F - 69.8 °F 100% 30.05 in 1.0 mi Calm Calm - N/A   Mostly Cloudy
9:55 PM 69.8 °F - 69.8 °F 100% 30.04 in 8.0 mi East 3.5 mph - N/A   Scattered Clouds
10:15 PM 69.8 °F - 69.8 °F 100% 30.05 in 5.0 mi East 4.6 mph - N/A   Mostly Cloudy
10:35 PM 69.8 °F - 69.8 °F 100% 30.05 in 9.0 mi Calm Calm - N/A   Mostly Cloudy
10:55 PM 69.8 °F - 69.8 °F 100% 30.05 in 5.0 mi Calm Calm - N/A   Scattered Clouds
11:15 PM 69.8 °F - 69.8 °F 100% 30.05 in 5.0 mi Calm Calm - N/A   Scattered Clouds
11:35 PM 69.8 °F - 69.8 °F 100% 30.05 in 5.0 mi Calm Calm - N/A   Partly Cloudy
11:55 PM 69.8 °F - 69.8 °F 100% 30.05 in 7.0 mi Calm Calm - N/A   Clear